SPEKTR-R (37755 NORAD) Tracking and Keplerian Element Data

This shows tracking and keplerian element data for the satellite.

Feedback or suggestion? Click here.




ElementValue
Catalog37755
NameSPEKTR-R
Epoch Orbit273
Epoch Day39.85315834
Epoch Year2018
RAAN298.0985
Inclination51.8589
Eccentricity0.9303355
Argument of Perigee0.5947
Mean Anonmoly1.42
Mean Motion0.12123306
Decay Rate-8.981E-05
L11 37755U 11037A 18039.85315834 -.00008981 00000-0 00000+0 0 9993
L22 37755 51.8589 298.0985 9303355 0.5947 1.4200 0.12123306 2736

Live tracking and technical data element details for SPEKTR-R (NORAD 37755). SPEKTR-R can be tracked NOW for your location showing map with azimuth and elevation plus other details from your city location.

Track the satellite on the map from your city or location and see movement details for azimuth, elevation, latitude, longitude, range, height, and movement on the map or in text.







IsCatalogInMostPopularTable: catalog: 37755, numindb: 12
Update: records affected: 1



GetName: 37755 SPEKTR-R

Hit Count: updated at: Mon, 23 Jul 2018 07:56:28 GMT